KD9AQS Weather Reports


time (UTC)temp
C
wind
direction
speed
KPH
gust
KPH
rain 1hr
cm
rain 24hr
cm
rain mn
cm
humidity
%
barometer
mb
20260906110004 22 130 0.0 3.2 0.00 0.00 0.00 95 1011.2
20260906104600 22 130 0.0 0.0 0.00 0.00 0.00 95 1011.0
20260906103058 22 130 0.0 1.6 0.00 0.00 0.00 94 1011.0
20260906101602 22 130 0.0 0.0 0.00 0.00 0.00 94 1010.9
20260906100057 22 130 0.0 3.2 0.00 0.00 0.00 94 1010.8
20260906094556 22 130 0.0 4.8 0.00 0.00 0.00 94 1010.8
20260906093056 22 130 0.0 3.2 0.00 0.00 0.00 94 1010.9
20260906091556 22 136 1.6 6.4 0.00 0.00 0.00 94 1010.7
20260906090054 22 190 0.0 4.8 0.00 0.00 0.00 95 1010.9
20260906084554 22 194 0.0 4.8 0.00 0.00 0.00 95 1010.8
20260906083054 22 194 0.0 3.2 0.00 0.00 0.00 95 1011.0
20260906081556 22 195 1.6 4.8 0.00 0.00 0.00 95 1011.1
20260906080052 22 252 1.6 4.8 0.00 0.00 0.00 95 1011.1
20260906074553 22 256 4.8 8.0 0.00 0.00 0.00 96 1011.1
20260906073050 22 138 0.0 1.6 0.00 0.00 0.00 96 1010.8
20260906071549 22 138 0.0 1.6 0.00 0.00 0.00 96 1010.6
20260906070049 22 138 0.0 4.8 0.00 0.00 0.00 96 1010.5
20260906064547 22 138 1.6 3.2 0.00 0.00 0.00 95 1010.5
20260906063046 22 138 0.0 4.8 0.00 0.00 0.00 96 1010.6
20260906061546 22 136 0.0 3.2 0.00 0.00 0.00 96 1010.5
20260906060103 22 132 0.0 0.0 0.00 0.00 0.00 96 1010.6
20260906054543 22 132 0.0 0.0 0.00 0.00 0.00 95 1010.6
20260906053041 23 132 0.0 0.0 0.00 0.00 0.00 95 1010.7
20260906051538 23 132 0.0 0.0 0.00 0.00 0.00 96 1011.3
20260906050039 23 132 0.0 0.0 0.00 0.00 0.00 96 1011.3
20260906044535 23 132 0.0 0.0 0.00 0.00 0.00 95 1011.4
20260906043039 23 132 0.0 0.0 0.00 0.00 0.00 95 1011.5
20260906041536 23 132 0.0 0.0 0.00 0.00 0.00 94 1011.7
20260906040035 23 132 0.0 0.0 0.00 0.00 0.00 93 1011.8
20260906034534 23 132 0.0 0.0 0.00 0.00 0.00 93 1011.5
20260906033029 23 132 0.0 0.0 0.00 0.00 0.00 92 1011.5
20260906031633 24 132 0.0 1.6 0.00 0.00 0.00 90 1011.4
20260906030027 24 132 1.6 6.4 0.00 0.00 0.00 89 1011.2
20260906024528 24 128 0.0 9.7 0.00 0.00 0.00 89 1011.2
20260906023025 24 115 0.0 3.2 0.00 0.00 0.00 91 1010.9
20260906021525 24 115 0.0 4.8 0.00 0.00 0.00 90 1011.0
20260906020026 25 115 0.0 1.6 0.00 0.00 0.00 89 1011.0
20260906014526 25 115 0.0 6.4 0.00 0.00 0.00 89 1010.8
20260906013024 25 126 0.0 1.6 0.00 0.00 0.00 89 1010.7
20260906011524 25 126 0.0 1.6 0.00 0.00 0.00 88 1010.8
20260906010023 25 126 0.0 1.6 0.00 0.00 0.00 86 1010.7
20260906004523 26 126 1.6 4.8 0.00 0.00 0.00 85 1010.8
20260906003023 26 126 0.0 3.2 0.00 0.00 0.00 84 1010.7
20260906001522 26 126 1.6 4.8 0.00 0.00 0.00 84 1010.7
20260906000022 27 128 0.0 4.8 0.00 0.00 0.00 80 1010.8
20260905234521 28 128 1.6 4.8 0.00 0.00 0.00 77 1010.6
20260905233021 28 128 0.0 3.2 0.00 0.00 0.00 73 1010.5
20260905231532 28 128 0.0 3.2 0.00 0.00 0.00 73 1010.6
20260905230019 28 128 1.6 3.2 0.00 0.00 0.00 74 1010.2
20260905224522 28 128 0.0 3.2 0.00 0.00 0.00 76 1010.4
20260905223016 28 128 0.0 3.2 0.00 0.00 0.00 75 1010.6
20260905221633 28 128 1.6 4.8 0.00 0.00 0.00 77 1010.6
20260905220015 27 132 0.0 4.8 0.00 0.00 0.00 78 1010.8
20260905214513 27 138 0.0 4.8 0.00 0.00 0.00 80 1010.6
20260905213011 26 139 0.0 3.2 0.00 0.00 0.00 80 1010.7
20260905211511 27 139 0.0 0.0 0.00 0.00 0.00 79 1011.0
20260905210011 27 139 0.0 6.4 0.00 0.00 0.00 79 1010.8
20260905204509 27 262 0.0 3.2 0.00 0.00 0.00 75 1010.9
20260905203009 26 92 0.0 0.0 0.00 0.00 0.00 75 1011.3
20260905201507 26 92 0.0 1.6 0.00 0.00 0.00 74 1011.3
20260905200007 26 92 3.2 9.7 0.00 0.00 0.00 78 1011.3
20260905194506 26 112 3.2 9.7 0.00 0.00 0.00 78 1011.5
20260905193005 26 107 1.6 11.3 0.00 0.00 0.00 79 1011.7
20260905191506 27 75 6.4 9.7 0.00 0.00 0.00 77 1011.7
20260905190012 27 21 1.6 9.7 0.00 0.00 0.00 74 1011.7
20260905184506 30 83 6.4 16.1 0.00 0.00 0.00 69 1011.8
20260905183007 32 60 3.2 19.3 0.00 0.00 0.00 62 1011.5
20260905181505 35 355 6.4 16.1 0.00 0.00 0.00 56 1011.3
20260905180113 34 146 3.2 9.7 0.00 0.00 0.00 54 1011.3
20260905174557 34 80 4.8 12.9 0.00 0.00 0.00 57 1011.5
20260905173112 33 31 1.6 9.7 0.00 0.00 0.00 58 1011.8
20260905171555 33 89 3.2 11.3 0.00 0.00 0.00 58 1011.8
20260905170050 33 124 1.6 4.8 0.00 0.00 0.00 63 1012.1
20260905164545 32 128 1.6 6.4 0.00 0.00 0.00 67 1012.4
20260905163042 32 148 1.6 8.0 0.00 0.00 0.00 65 1012.4
20260905161541 31 165 1.6 6.4 0.00 0.00 0.00 64 1012.7
20260905160051 31 166 3.2 9.7 0.00 0.00 0.00 67 1012.7
20260905154535 30 257 1.6 6.4 0.00 0.00 0.00 71 1012.6
20260905153035 30 161 3.2 8.0 0.00 0.00 0.00 72 1012.8
20260905151528 29 194 1.6 9.7 0.00 0.00 0.00 73 1013.0
20260905150025 28 156 3.2 11.3 0.00 0.00 0.00 74 1013.1
20260905144527 28 168 1.6 8.0 0.00 0.00 0.00 76 1013.2
20260905143020 28 170 3.2 6.4 0.00 0.00 0.00 75 1013.2
20260905141519 28 142 3.2 8.0 0.00 0.00 0.00 75 1013.3
20260905140020 27 108 0.0 3.2 0.00 0.00 0.00 78 1013.5
20260905134511 26 108 0.0 0.0 0.00 0.00 0.00 81 1013.5
20260905133011 26 109 0.0 0.0 0.00 0.00 0.00 84 1013.7
20260905131509 25 109 0.0 3.2 0.00 0.00 0.00 85 1013.6
20260905130006 25 107 0.0 3.2 0.00 0.00 0.00 86 1013.7
20260905124506 24 107 0.0 1.6 0.00 0.00 0.00 89 1013.8
20260905123005 23 107 1.6 4.8 0.00 0.00 0.00 92 1013.9
20260905121503 23 107 0.0 3.2 0.00 0.00 0.00 93 1013.4
20260905120001 23 107 0.0 1.6 0.00 0.00 0.00 94 1013.3
20260905114610 22 107 0.0 3.2 0.00 0.00 0.00 94 1013.1
20260905113100 22 107 0.0 3.2 0.00 0.00 0.00 95 1012.9
20260905111652 22 107 0.0 1.6 0.00 0.00 0.00 94 1012.9